Погода в Москве

Погода в Москве : погода сейчас, прогноз погоды и архив. Всё, что Вы хотите узнать о погоде в Москве!

Хотите узнать прогноз погоды в Москве? Тогда Вам сюда: Погода в Москве

Поиск расширенной информации на нашем сайте:

Другие новости

Новости СМИ2

Главная страница сайта

Новости сайта

03.07.2017

Напоминаем, что на нашем специализированном сайте Метеоцентр.Азия вы можете получить высокодетализированные автоматические прогнозы погоды по пунктам России, СНГ и мира в авиационном формате (включающие направление и скорость ветра, видимость, явления погоды, количество и форму облачности, нижнюю и верхнюю границу облачности).


Погода в Москве - сегодня

Время (UTC), дата Ветер
(°,м/с) 
Видим.   Явления Облачность Т
(°С)
Тd
(°С)
f(%) Тe
(°С)
Pmin
(гПа)
dP
(гПа)
Po
(мм)
O2
(г/м3)
Тmin Tmax R s Состояние
почвы
09 22.11.17 340 (С) 4000 м  в посл. час снег  10/10 300 м 
[Sc]
-0.5 -2.8 84 -2  1008  0.6  741  300           
12 22.11.17 340 (С) 3{10}  4000 м  слаб. снег  10/10 600 м 
[Sc]
-0.9 -3.9 80 -3  1009  742  300           
15 22.11.17 330 (СЗ) н/о  {снег}  10/8 600 м средняя 
[Sc|As op]
-1.3 -5 76 -4  1010.4  1.3  743  301      0.0     
18 22.11.17 350 (С) 4{11}  н/о  {снег}  10/3 1000 м средняя 
[Sc|As op]
-1.7 -5.7 74 -4  1011.6  1.1  744  302    -0.4  0.0     
21 22.11.17 330 (СЗ) 3{12}  н/о    10/3 1000 м средняя 
[Sc|As op]
-1.9 -6.2 72 -4  1012.2  0.6  744  303           
00 23.11.17 340 (С) 3{10}  н/о    10/0 средняя 
[As op]
-2.5 -6.5 74 -5  1013.5  1.2  745  304           
03 23.11.17 350 (С) 3{12}  н/о    10/0 средняя 
[As op]
-2.5 -5.8 78 -5  1015.1  1.6  746  304  -2.6    0.0     
06 23.11.17 340 (С) 10 км    10/8 600 м средняя 
[Sc|As op]
-2.8 -6 79 -5  1016.7  1.6  748  305  -2.8         
09 23.11.17 320 (СЗ) 10 км    10/8 600 м средняя 
[Sc|As op]
-3.4 -6.6 78 -6  1018.3  1.6  749  306           
12 23.11.17 340 (С) 3{10}  10 км    10/10 600 м 
[Sc]
-3.3 -6.6 78 -5  1019.3  749  306           
15 23.11.17 330 (СЗ) н/о  слаб. снег  10/10 600 м 
[Sc]
-3.7 -6.6 80 -5  1021.5  2.1  751  307      0.0     
18 23.11.17 010 (С) н/о  {снег}  9/9 600 м 
[Sc]
-3.7 -6.9 78 -5  1022.4  752  308    -2.7  0.0     
21 23.11.17 330 (СЗ) н/о    10/10 600 м 
[Sc]
-4.5 -7.7 78 -6  1023.2  0.7  752  309           
00 24.11.17 060 (СВ) н/о    10/10 600 м 
[Sc]
-4.9 -7.7 81 -4  1024.4  1.1  753  310           
03 24.11.17 090 (В) н/о    10/10 600 м 
[Sc]
-5 -7.5 83 -5  1025.1  0.7  754  310  -5.1    0.0     
06 24.11.17 010 (С) 10 км    10/10 600 м 
[Sc]
-5 -7.4 83 -5  1025.7  0.6  754  310  -5.1         
09 24.11.17 110 (В) 10 км    10/8 1000 м средняя 
[Sc|Ac und]
-4 -7 80 -4  1025.5  0.1  754  309           
12 24.11.17 тихо ()   10 км    10/0 средняя 
[Ac As]
-3.8 -6.9 79 -4  1025.3  -0.2  754  309           
15 24.11.17 260 (З) н/о    10/10 600 м 
[Sc]
-4.1 -6.5 83 -4  1025.5  0.2  754  309           
18 24.11.17 тихо ()   н/о    10/10 600 м 
[Sc]
-4.3 -6.6 84 -4  1025  -0.6  753  309    -3.5       
21 24.11.17 тихо ()   н/о    10/10 300 м 
[St]
-4.9 -6.8 87 -5  1024.3  -0.7  753  310           
00 25.11.17 210 (ЮЗ) н/о  дымка  10/10 300 м 
[St]
-5.4 -7.2 87 -5  1024  -0.3  753  310           
03 25.11.17 160 (Ю) н/о  дымка  10/10 300 м 
[St]
-5.5 -7.8 84 -5  1023.9  0.1  753  310  -5.7         
06 25.11.17 тихо ()   10 км    9/6 1000 м средняя 
[Sc|Ac trans]
-5.8 -7.8 86 -6  1023.1  -0.7  752  310  -5.9         
09 25.11.17 160 (Ю) 10 км    10/10 1000 м 
[Sc]
-4.7 -7.2 83 -4  1022.8  -0.2  752  309           
Время (UTC), дата Ветер
(°,м/с) 
Видим.   Явления Облачность Т
(°С)
Тd
(°С)
f(%) Тe
(°С)
Pmin
(гПа)
dP
(гПа)
Po
(мм)
O2
(г/м3)
Тmin Tmax R s Состояние
почвы

Для получения пояснительной информации подведите курсор к названию столбца.

ПОГОДА в Москве - архив

Всё, что Вы хотите узнать о погоде в Москве - удобно и подробно!

Выберите нужную дату (начиная с 1 января 2015* года) и нажмите кнопку "Найти".
Будут отображены архивные сводки погоды по пункту Москва, начиная с указанной даты.


Отображать данные в формате CSV (для использования в таблицах Excel)


Внимание! Наш архив погоды предназначен исключительно для личного некоммерческого использования в познавательных целях. Если Вам необходимы официальные справки о состоянии погоды (для производственных, юридических, коммерческих и т.п. целей), обращайтесь в органы Росгидромета.

*Примечание: данная дата относится к архиву по метеостанциям СССР (Россия, СНГ, Балтия).
Архив по метеостанциям Зарубежной Европы и Азии (кроме Китая) хранится 10 дней, по другим регионам земного шара (Китай, Африка, Америка, Австралия, Океания) - 1 день.

Москва - район местоположения метеостанции


Название, широта, долгота, высота метеостанции:
Москва (ВВЦ) 55.8°ш. 37.6°д. 156 м над ур. моря [Российская Федерация]

Дополнительная информация

В oтличие oт бoльшинства пoгoдных сайтoв мы публикуем пoдрoбную метеoинфoрмацию в детальнoм прoфессиoнальнoм фoрмате.

Характеристики температуры и влажнoсти вoздуха измеряются на высoте 2 м в тени вдали oт зданий и деревьев.
Скoрoсть ветра измеряется на высoте 10 м (на урoвне рoста челoвека скoрoсть ветра ниже в 1.5-2 раза). Если метеoстанция нахoдится в гoрoде или в лесу, тo скoрoсть ветра занижена на 2-4 м/с пo сравнению с oткрытым местoм. Скoрoсть ветра над акватoриями крупных рек и oзёр, а также на вершинах хoлмoв на 2-5 м/с выше, чем в oбычных услoвиях.
Атмoсфернoе давление в разных тoчках местнoсти мoжет значительнo oтличаться oт давления на метеoстанции, в зависимoсти oт услoвий рельефа (при пoдъёме на 10 м давление пoнижается примернo на 1 мм рт.ст.).